Starlink 32138

operational
NORAD ID: 60255 Int'l Des: 2024-131 Owner: SPXS Country: US Constellation: starlink
LEOCIRCULAR

About Starlink 32138

Description loading...

Live Position

Loading 3D Globe...

Upcoming Passes

Altitude History

Altitude vs Time

uPlot chart will show altitude changes over time

Two-Line Element Set

1 60255U 24131A 25304.67245006 -.00000748 00000-0 -13119-4 0 9993
2 60255 53.1612 291.8376 0001354 92.6121 267.5034 15.30189266 72263
Epoch: Oct 31, 2025 • Age: 20 hours

Current Status

Altitude 493.9 km
Velocity 7.62 km/s
Sub-Earth Point -51.29°S, 45.69°W
Launch Date Jul 27, 2024
Age 1.2 years
Type internet

Technical Details

Classification Payload
Mass 730.00 kg
Dry Mass 700.00 kg
Total Mass 730.00 kg
Length 0.30 m
Diameter 4.10 m
Span 29.00 m
Shape Box + pan
Manufacturer SPXS
Bus Type Starlink V2M
Phase Status In Orbit
Owner/State SPXS/US

Large Constellations

Loading constellations...